MDT,Max TemperatureF,Mean TemperatureF,Min TemperatureF,Max Dew PointF,MeanDew PointF,Min DewpointF,Max Humidity, Mean Humidity, Min Humidity, Max Sea Level PressureIn, Mean Sea Level PressureIn, Min Sea Level PressureIn, Max VisibilityMiles, Mean VisibilityMiles, Min VisibilityMiles, Max Wind SpeedMPH, Mean Wind SpeedMPH, Max Gust SpeedMPH,PrecipitationIn, CloudCover, Events, WindDirDegrees
2013-9-1,86,76,65,64,59,55,87,64,40,30.04,29.97,29.87,10,10,10,21,9,29,T,2,,65
2013-9-2,96,80,64,58,55,50,73,48,23,30.01,29.91,29.82,10,10,10,23,9,28,0.00,0,,159
2013-9-3,99,81,63,55,51,42,67,41,15,29.92,29.86,29.81,10,10,10,14,5,18,0.00,0,,148
2013-9-4,102,85,68,53,46,37,53,32,11,30.14,29.91,29.86,10,10,6,16,8,24,0.00,0,,206
2013-9-5,100,83,65,49,42,36,52,32,11,30.00,29.94,29.88,10,10,10,23,9,26,0.00,0,,185
2013-9-6,101,83,64,42,38,32,40,25,9,29.96,29.88,29.80,10,10,10,20,8,24,0.00,0,,186
2013-9-7,99,80,60,46,41,36,49,30,11,29.94,29.85,29.77,10,10,10,20,8,25,0.00,0,,175
2013-9-8,98,82,65,47,43,37,45,29,13,29.83,29.74,29.65,10,10,10,24,12,29,0.00,0,,183
2013-9-9,97,82,67,54,45,38,57,36,14,29.78,29.67,29.59,10,10,10,24,12,30,0.00,1,,190
2013-9-10,86,74,62,59,55,49,78,55,31,29.96,29.90,29.79,10,10,10,25,8,30,0.00,1,,91
2013-9-11,73,69,64,64,62,56,93,77,61,30.22,30.07,29.95,10,10,6,17,9,22,0.23,6,Rain,112
2013-9-12,79,72,64,64,62,58,93,71,48,30.23,30.09,29.97,10,7,0,22,8,26,0.05,6,Fog-Rain,125
2013-9-13,78,72,65,64,62,53,93,68,42,30.18,29.99,29.81,10,7,2,26,16,33,0.10,7,Rain,132
2013-9-14,86,73,60,59,53,47,84,56,27,29.83,29.76,29.69,10,10,10,24,13,32,0.00,0,,199
2013-9-15,71,64,56,60,57,53,90,76,61,30.24,30.02,29.75,10,10,5,23,11,25,0.13,6,Rain,52
2013-9-16,73,65,56,60,56,54,100,81,61,30.28,30.16,29.98,10,7,2,21,10,24,0.02,6,Rain,93
2013-9-17,89,75,60,61,56,44,100,61,22,30.12,29.89,29.68,10,9,1,18,8,24,0.00,3,,221
2013-9-18,93,80,66,57,51,44,68,44,20,29.71,29.65,29.57,10,10,10,28,13,32,0.00,0,,239
2013-9-19,78,68,58,54,50,48,67,53,39,30.05,29.85,29.69,10,10,10,25,14,31,0.06,3,Rain,18
2013-9-20,76,66,56,54,51,47,86,62,38,30.08,30.01,29.91,10,10,4,17,8,25,0.00,4,,118
2013-9-21,91,71,51,56,49,34,89,52,14,29.93,29.80,29.63,10,10,10,18,8,23,0.00,0,,197
2013-9-22,93,75,56,56,47,28,69,41,13,29.64,29.53,29.36,10,10,7,37,14,44,0.07,2,Rain,213
2013-9-23,77,65,52,50,43,33,83,52,21,29.94,29.64,29.39,10,10,10,29,11,35,0.03,3,Rain,273
2013-9-24,82,64,46,44,38,29,80,48,16,30.06,29.93,29.77,10,10,8,14,6,18,0.00,0,,178
2013-9-25,93,71,49,44,34,23,71,40,8,29.76,29.55,29.39,10,10,10,25,11,31,0.00,0,,205
2013-9-26,90,75,59,42,35,22,43,26,8,29.55,29.47,29.38,10,10,10,26,12,32,0.00,0,,185
2013-9-27,90,69,47,51,42,36,83,50,16,29.86,29.58,29.40,10,10,10,39,16,47,0.02,3,Rain,240
2013-9-28,73,58,42,42,30,12,89,50,10,30.11,30.02,29.88,10,10,10,13,7,17,0.00,0,,174
2013-9-29,84,62,39,32,25,15,70,39,8,30.02,29.89,29.75,10,10,10,20,8,22,0.00,0,,251
2013-9-30,90,72,53,31,27,22,41,25,8,29.77,29.68,29.58,10,10,10,20,10,23,0.00,0,,211